カタログに戻る

STARLINK-30826

運用中通信VLEO
NORAD 58188·PAYLOAD·🇺🇸 United States

打ち上げ Oct 30, 2023 から Cape Canaveral Space Force Station

Loading…

次のパス (今後24時間)

TLE

最新Source: CelesTrak SupGP

元期: Sep 15, 2026, 01:59 UTC

1 58188C 23167P   26258.08312500  .00025804  00000+0  93478-3 0  2581
2 58188  43.0029 153.7922 0001530 277.3768 331.0108 15.27560203    16

AllMySatでSTARLINK-30826をリアルタイム追跡

Download on the App Store